Crossville, TN

6:59 AM CDT on September 26, 2017 (GMT -0500)
Crossville Memorial-Whitson

Weather History for KCSV - February, 2013

Change the Weather History Date:

Monday, February 18, 2013

  Actual Average Record
Temperature  
Mean Temperature 42 °F 40 °F  
Max Temperature 54 °F 49 °F 68 °F (1986)
Min Temperature 30 °F 31 °F -4 °F (1958)
Degree Days  
Heating Degree Days 23    
Month to date heating degree days 485  
Since 1 July heating degree days 2875  
Cooling Degree Days 0    
Month to date cooling degree days 0  
Year to date cooling degree days 0  
Moisture  
Dew Point 22 °F    
Average Humidity 41    
Maximum Humidity 47    
Minimum Humidity 35    
Precipitation  
Precipitation 0.09 in 0.16 in 1.63 in (1991)
Month to date precipitation 1.44 2.86  
Year to date precipitation 8.57 7.62  
Sea Level Pressure  
Sea Level Pressure 30.12 in    
Wind  
Wind Speed 10 mph (South)    
Max Wind Speed 26 mph    
Max Gust Speed 44 mph    
Visibility 10 miles    
Events Rain    
T = Trace of Precipitation, MM = Missing Value Source: NWS Daily Summary

Daily Weather History Graph

Daily Weather History Graph

Search for Another Location

Airport or City:

Trip Planner

Search our weather history database for the weather conditions in past years. The results will help you decide how hot, cold, wet, or windy it might be!

Date:

Astronomy

Feb. 18, 2013 Rise Set
Actual Time 6:23 AM CST 5:25 PM CST
Civil Twilight 5:57 AM CST 5:51 PM CST
Nautical Twilight 5:27 AM CST 6:21 PM CST
Astronomical Twilight 4:58 AM CST 6:50 PM CST
Moon 11:15 AM CST (2/18) 12:57 AM CST (2/18)
Length of Visible Light 11h 53m
Length of Day
11h 01m
First Quarter, 58% of the Moon is Illuminated
Feb 18
First Quarter
Feb 25
Full
Mar 4
Last Quarter
Mar 11
New
Mar 19
First Quarter

Hourly Weather History & Observations

Time (CST) Temp. Windchill Dew Point Humidity Pressure Visibility Wind Dir Wind Speed Gust Speed Precip Events Conditions
12:53 AM 30.9 °F - 12.9 °F 47% 30.23 in 10.0 mi Calm Calm - N/A   Clear
1:53 AM 33.1 °F 28.7 °F 15.1 °F 48% 30.22 in 10.0 mi Variable 4.6 mph - N/A   Clear
2:53 AM 33.1 °F 28.7 °F 15.1 °F 48% 30.22 in 10.0 mi South 4.6 mph - N/A   Clear
3:53 AM 33.1 °F 30.0 °F 15.1 °F 48% 30.22 in 10.0 mi South 3.5 mph - N/A   Clear
4:53 AM 33.1 °F 28.7 °F 15.1 °F 48% 30.24 in 10.0 mi South 4.6 mph - N/A   Clear
5:53 AM 33.1 °F 28.7 °F 15.1 °F 48% 30.24 in 10.0 mi South 4.6 mph - N/A   Clear
6:53 AM 34.0 °F 28.0 °F 15.1 °F 46% 30.25 in 10.0 mi South 6.9 mph - N/A   Clear
7:53 AM 37.9 °F 32.1 °F 16.0 °F 41% 30.27 in 10.0 mi South 8.1 mph - N/A   Clear
8:53 AM 42.1 °F 36.6 °F 19.0 °F 40% 30.26 in 10.0 mi South 9.2 mph 17.3 mph N/A   Clear
9:53 AM 45.0 °F 40.1 °F 21.0 °F 39% 30.25 in 10.0 mi South 9.2 mph 19.6 mph N/A   Clear
10:53 AM 48.9 °F - 24.1 °F 38% 30.22 in 10.0 mi SSW 8.1 mph - N/A   Clear
11:53 AM 51.1 °F - 26.1 °F 38% 30.18 in 10.0 mi South 11.5 mph 21.9 mph N/A   Clear
12:53 PM 50.0 °F - 24.1 °F 36% 30.14 in 10.0 mi South 10.4 mph 16.1 mph N/A   Clear
1:53 PM 51.1 °F - 25.0 °F 36% 30.12 in 10.0 mi South 10.4 mph 19.6 mph N/A   Clear
2:53 PM 53.1 °F - 26.1 °F 35% 30.09 in 10.0 mi SSE 12.7 mph 21.9 mph N/A   Clear
3:53 PM 52.0 °F - 26.1 °F 37% 30.06 in 10.0 mi South 12.7 mph 27.6 mph N/A   Clear
4:53 PM 51.1 °F - 27.0 °F 39% 30.04 in 10.0 mi South 6.9 mph 20.7 mph N/A   Partly Cloudy
5:53 PM 50.0 °F - 26.1 °F 39% 30.04 in 10.0 mi South 8.1 mph 24.2 mph N/A   Partly Cloudy
6:53 PM 50.0 °F - 25.0 °F 38% 30.00 in 10.0 mi South 11.5 mph 26.5 mph N/A   Overcast
7:53 PM 50.0 °F - 25.0 °F 38% 29.96 in 10.0 mi South 23.0 mph 36.8 mph N/A   Mostly Cloudy
8:53 PM 48.9 °F - 24.1 °F 38% 29.94 in 10.0 mi South 21.9 mph 38.0 mph N/A   Overcast
9:53 PM 48.0 °F - 24.1 °F 39% 29.95 in 10.0 mi South 16.1 mph 35.7 mph N/A   Mostly Cloudy
10:53 PM 46.9 °F - 25.0 °F 42% 29.93 in 10.0 mi SSE 16.1 mph 36.8 mph N/A   Overcast
11:53 PM 42.1 °F 34.5 °F 33.1 °F 70% 29.91 in 5.0 mi SSE 15.0 mph 26.5 mph 0.08 in Rain Light Rain